Retour au catalogue

STARLINK-5836

ActifCommunicationsVLEO
NORAD 56386·PAYLOAD·🇺🇸 United States

Lancé May 4, 2023 depuis Cape Canaveral Space Force Station

Loading…

Prochains Passages (prochaines 24 heures)

TLE

FraisSource: CelesTrak SupGP

Époque: Sep 15, 2026, 02:04 UTC

1 56386C 23061N   26258.08659722 -.00018774  00000+0 -68020-3 0  2587
2 56386  42.9992 208.5370 0000656 247.2037  71.6707 15.27578850    19

Suivez STARLINK-5836 en temps réel avec AllMySat

Download on the App Store